Regional Weather Roundup
Issued by NWS Sioux Falls, SD

Home | Current Version | Previous Version | Text Only | Print | Product List | Glossary On
Versions: 1 2 3 4 5 6 7 8 9 10 11 12 13 14 15 16 17 18 19 20 21 22 23 24 25 26 27 28 29 30 31 32 33 34 35 36 37 38 39 40 41 42 43 44 45 46 47 48 49 50
000
ASUS43 KFSD 070410
RWRFSD

WEATHER ROUNDUP FOR SE SOUTH DAKOTA/SW MINNESOTA/NW IOWA
NATIONAL WEATHER SERVICE SIOUX FALLS SD
1000 PM CST SAT FEB 06 2016

NOTE: "FAIR" INDICATES FEW OR NO CLOUDS BELOW 12,000 FEET WITH NO
SIGNIFICANT WEATHER AND OR OBSTRUCTIONS TO VISIBILITY.


SDZ038>040-050-052>070-070500-
SOUTHEAST SOUTH DAKOTA

CITY           SKY/WX    TMP DP  RH WIND       PRES   REMARKS
BROOKINGS      CLOUDY    36  30  79 SW10      29.78R
CHAMBERLAIN    CLOUDY    39  30  68 W12G18    29.89R
HURON          CLOUDY    39  29  67 W18       29.81R
MADISON        CLOUDY    36  36 100 SW14      29.78F
MITCHELL       MOCLDY    43  30  60 W17       29.84S
SIOUX FALLS    CLOUDY    33  26  75 W8        29.83F WCI  26
WINNER         MOCLDY    41  29  62 W13       29.93R
YANKTON        CLOUDY    39  28  65 W17       29.86S
$$

MNZ071-072-080-081-089-090-097-098-070500-
SOUTHWEST MINNESOTA

CITY           SKY/WX    TMP DP  RH WIND       PRES   REMARKS
FAIRMONT       CLOUDY    34  25  69 SW15      29.82F WCI  24
JACKSON        CLOUDY    32  27  80 SW14      29.83F WCI  22
LUVERNE        CLOUDY    30  27  86 S5        29.85S WCI  25
MARSHALL       CLOUDY    36  29  75 SW6       29.74F
MONTEVIDEO     CLOUDY    36  30  80 W8        29.74F
PIPESTONE        N/A     34  25  69 SW9       29.78F WCI  26
REDWOOD FALLS  CLOUDY    35  29  78 S10       29.74F WCI  27
TRACY          CLOUDY    35  29  80 SW21      29.76F WCI  24
WINDOM         CLOUDY    34  28  80 SW9       29.81F WCI  26
WORTHINGTON    CLOUDY    30  25  80 SW16      29.83F WCI  19
$$

IAZ001>003-012>014-020>022-031-032-NEZ013-014-SDZ071-070500-
NORTHWEST IOWA

CITY           SKY/WX    TMP DP  RH WIND       PRES   REMARKS
CHEROKEE       CLOUDY    32  27  82 SW5       29.88R WCI  27
DENISON        CLOUDY    36  25  64 SW15G21   29.89F
ESTHERVILLE    CLOUDY    31  26  82 SW17      29.83F WCI  19
LE MARS        CLOUDY    30  30 100 S9        29.88R WCI  22
ORANGE CITY    CLOUDY    30  28  93 SW9       29.86S WCI  22
SHELDON        CLOUDY    32  28  86 S8        29.84S WCI  25
SIOUX CITY     CLOUDY    33  25  72 S10       29.89F WCI  25
SPENCER        CLOUDY    32  25  75 SW14      29.85S WCI  22
STORM LAKE     CLOUDY    32  28  86 SW16      29.88R WCI  21
$$

ABBREVIATIONS USED IN REMARKS
   TC - TEMPERATURE IN CELSIUS
  WCI - WIND CHILL INDEX
   HX - HEAT INDEX
  VSB - VISIBILITY




USA.gov is the U.S. government's official web portal to all federal, state and local government web resources and services.